Station 44056 - Duck FRF, NC Image indicating link to RSS feed of recent meteorological observations for station 44056


Conditions at 44056 as of
(1:26 pm EDT)
1726 GMT on 05/26/2024:
     

Click on the graph icon in the table below to see a time series plot of the last five days of that observation.

5-day plot - Wave Height Wave Height (WVHT): 1.3 ft
5-day plot - Dominant Wave Period Dominant Wave Period (DPD): 14 sec
5-day plot - Average Wave Period Average Period (APD): 4.5 sec
5-day plot - Mean Wave Direction Mean Wave Direction (MWD): E ( 80 deg true )
5-day plot - Water Temperature Water Temperature (WTMP): 73.0 °F
Previous observations
TIME
(EDT)
5-day plot - Wind Direction
WDIR
 
5-day plot - Wind Speed
WSPD
kts
5-day plot - Wind Gust
GST
kts
5-day plot - Wave Height
WVHT
ft
5-day plot - Dominant Wave Period
DPD
sec
5-day plot - Average Wave Period
APD
sec
5-day plot - Mean Wave Direction
MWD
 
5-day plot - Atmospheric Pressure
PRES
in
5-day plot - Pressure Tendency
PTDY
in
5-day plot - Air Temperature
ATMP
°F
5-day plot - Water Temperature
WTMP
°F
5-day plot - Dew Point
DEWP
°F
5-day plot - Salinity
SAL
psu
5-day plot - Visibility
VIS
nmi
5-day plot - Tide (above MLLW)
TIDE
ft
2024-05-26 12:56 pm--- 1.3 84.9ESE--- 72.7----
2024-05-26 12:26 pm--- 1.3 145.7 E--- 72.5----
2024-05-26 11:56 am--- 1.0 135.3 E--- 72.1----
2024-05-26 11:26 am--- 1.3 146.1ENE--- 71.8----
2024-05-26 10:56 am--- 1.3 96.0 E--- 71.4----
2024-05-26 10:26 am--- 1.0 145.7ENE--- 71.1----
2024-05-26 09:56 am--- 1.3 146.2 E--- 70.9----
2024-05-26 09:26 am--- 1.0 146.0 E--- 70.7----
2024-05-26 08:56 am--- 1.3 136.5ENE--- 70.7----
2024-05-26 08:26 am--- 1.3 136.6 NE--- 70.5----
2024-05-26 07:56 am--- 1.3 136.2ENE--- 70.5----
2024-05-26 07:26 am--- 1.0 146.4ENE--- 70.3----
2024-05-26 06:56 am--- 1.0 136.4 NE--- 70.3----
2024-05-26 06:26 am--- 1.0 136.4ENE--- 70.5----
2024-05-26 05:56 am--- 1.0 136.2 NE--- 70.5----
2024-05-26 05:26 am--- 1.0 146.2ENE--- 70.7----
2024-05-26 04:56 am--- 1.0 136.3ENE--- 70.7----
2024-05-26 04:26 am--- 1.0 146.0ENE--- 70.3----
2024-05-26 03:56 am--- 1.0 136.1ENE--- 70.7----
2024-05-26 03:26 am--- 1.0 136.1 E--- 70.7----
2024-05-26 02:56 am--- 1.0 136.1ENE--- 70.9----
2024-05-26 02:26 am--- 1.0 145.8ENE--- 70.9----
2024-05-26 01:56 am--- 1.0 135.6ENE--- 70.9----
2024-05-26 01:26 am--- 1.0 145.7 E--- 70.9----
2024-05-26 12:56 am--- 1.3 145.6 E--- 70.9----
2024-05-26 12:26 am--- 1.3 145.5ENE--- 71.1----
2024-05-25 11:56 pm--- 1.3 145.1 E--- 70.9----
2024-05-25 11:26 pm--- 1.3 145.1ENE--- 70.9----
2024-05-25 10:56 pm--- 1.3 94.8 E--- 70.9----
2024-05-25 10:26 pm--- 1.3 144.8 E--- 70.7----
2024-05-25 09:56 pm--- 1.3 144.6ENE--- 70.7----
2024-05-25 09:26 pm--- 1.3 144.6ENE--- 70.9----
2024-05-25 08:56 pm--- 1.3 144.4 E--- 70.7----
2024-05-25 08:26 pm--- 1.3 144.3 E--- 70.5----
2024-05-25 07:56 pm--- 1.3 134.2 E--- 69.8----
2024-05-25 07:26 pm--- 1.3 144.2 E--- 69.4----
2024-05-25 06:56 pm--- 1.3 144.4 E--- 69.4----
2024-05-25 06:26 pm--- 1.3 144.5 E--- 69.4----
2024-05-25 05:56 pm--- 1.3 144.6ENE--- 69.8----
2024-05-25 05:26 pm--- 1.3 145.0 E--- 70.0----
2024-05-25 04:56 pm--- 1.3 145.3 E--- 70.0----
2024-05-25 04:26 pm--- 1.0 95.1 E--- 70.2----
2024-05-25 03:56 pm--- 1.3 144.7ENE--- 70.2----
2024-05-25 03:26 pm--- 1.3 145.1ENE--- 69.4----
2024-05-25 02:56 pm--- 1.3 154.9 E--- 68.4----
2024-05-25 02:26 pm--- 1.3 154.8 E--- 66.6----
2024-05-25 01:56 pm--- 1.3 104.9 E--- 66.7----
2024-05-25 01:26 pm--- 1.3 105.1 E--- 66.7----
2024-05-25 12:56 pm--- 1.3 154.8 E--- 66.0----

Detailed Wave Summary
for 44056 as of (1:26 pm EDT)
1726 GMT on 05/26/2024:

These wave data are displayed in rounded times.

     

Click on the graph icon in the table below to see a time series plot of the last five days of that observation.

5-day plot - Significant Wave Height Significant Wave Height (WVHT): 1.3 ft
5-day plot - Swell Height Swell Height (SwH): 0.7 ft
5-day plot - Swell Period Swell Period (SwP): 14.3 sec
5-day plot - Swell Direction Swell Direction (SwD): E
5-day plot - Wind Wave Height Wind Wave Height (WWH): 1.0 ft
5-day plot - Wind Wave Period Wind Wave Period (WWP): 9.1 sec
5-day plot - Wind Wave Direction Wind Wave Direction (WWD):ESE
5-day plot - Average Wave Period Average Wave Period (APD): 4.5 sec
Previous observations
TIME
(EDT)
5-day plot - Wave Height
WVHT
ft
5-day plot - Swell Height
SwH
ft
5-day plot - Swell Period
SwP
sec
5-day plot - Swell Direction
SwD
 
5-day plot - Wind Wave Height
WWH
ft
5-day plot - Wind Wave Period
WWP
sec
5-day plot - Wind Wave Direction
WWD
 
5-day plot - Wave Steepness
STEEPNESS
 
5-day plot - Average Wave Period
APD
sec
2024-05-26 12:56 pm 1.3 0.7 13.3ENE 1.0 8.3 ESE N/A 4.9
2024-05-26 12:26 pm 1.0 0.7 14.3 E 1.0 9.1 ESE N/A 5.7
2024-05-26 11:56 am 1.0 0.3 13.3 E 1.0 9.1 ESE N/A 5.3
2024-05-26 11:26 am 1.3 0.7 14.3ENE 1.0 9.1 ESE N/A 6.1
2024-05-26 10:56 am 1.0 0.7 13.3ENE 1.0 9.1 E N/A 6.0
2024-05-26 10:26 am 1.0 0.7 14.3ENE 1.0 9.1 ESE N/A 5.7
2024-05-26 09:56 am 1.0 0.7 14.3 E 1.0 8.3 ESE N/A 6.2
2024-05-26 09:26 am 1.0 0.7 14.3 E 1.0 8.3 ESE N/A 6.0
2024-05-26 08:56 am 1.0 0.7 13.3ENE 1.0 9.1 ESE N/A 6.5
2024-05-26 08:26 am 1.3 0.7 13.3 NE 1.0 9.1 ESE N/A 6.6
2024-05-26 07:56 am 1.3 0.7 13.3ENE 1.0 9.1 ESE N/A 6.2
2024-05-26 07:26 am 1.0 0.7 14.3ENE 1.0 9.1 ESE N/A 6.4
2024-05-26 06:56 am 1.0 0.7 13.3 NE 1.0 8.3 E N/A 6.4
2024-05-26 06:26 am 1.0 0.7 13.3ENE 1.0 5.9 ESE N/A 6.4
2024-05-26 05:56 am 1.0 0.3 13.3 NE 1.0 8.3 E N/A 6.2
2024-05-26 05:26 am 1.0 0.7 14.3ENE 1.0 8.3 E N/A 6.2
2024-05-26 04:56 am 1.0 0.7 13.3ENE 1.0 9.1 E N/A 6.3
2024-05-26 04:26 am 1.0 0.7 14.3ENE 1.0 9.1 E N/A 6.0
2024-05-26 03:56 am 1.0 0.7 13.3ENE 1.0 8.3 E N/A 6.1
2024-05-26 03:26 am 1.0 0.7 13.3 E 1.0 7.7 E N/A 6.1
2024-05-26 02:56 am 1.0 0.7 13.3ENE 1.0 9.1 E N/A 6.1
2024-05-26 02:26 am 1.0 0.7 14.3ENE 1.0 9.1 E N/A 5.8
2024-05-26 01:56 am 1.0 0.7 13.3ENE 1.0 7.7 E N/A 5.6
2024-05-26 01:26 am 1.0 0.7 14.3 E 1.0 8.3 E N/A 5.7
2024-05-26 12:56 am 1.0 0.7 14.3 E 1.0 8.3 ESE N/A 5.6
2024-05-26 12:26 am 1.0 0.7 14.3ENE 1.0 9.1 ESE N/A 5.5
2024-05-25 11:56 pm 1.0 0.7 14.3 E 1.0 9.9 E N/A 5.1
2024-05-25 11:26 pm 1.3 0.7 14.3ENE 1.0 9.1 ESE N/A 5.1
2024-05-25 10:56 pm 1.3 0.7 13.3 E 1.0 9.1 E N/A 4.8
2024-05-25 10:26 pm 1.3 0.7 14.3 E 1.0 9.1 E N/A 4.8
2024-05-25 09:56 pm 1.3 0.7 14.3ENE 1.3 9.1 E N/A 4.6
2024-05-25 09:26 pm 1.3 0.7 14.3ENE 1.3 8.3 ESE N/A 4.6
2024-05-25 08:56 pm 1.3 0.7 14.3 E 1.3 8.3 ESE N/A 4.4
2024-05-25 08:26 pm 1.3 0.7 14.3 E 1.3 9.1 ESE N/A 4.3
2024-05-25 07:56 pm 1.3 0.7 13.3 E 1.3 9.1 E N/A 4.2
2024-05-25 07:26 pm 1.3 0.7 14.3 E 1.0 7.7 ESE N/A 4.2
2024-05-25 06:56 pm 1.3 0.7 14.3 E 1.0 8.3 ESE N/A 4.4
2024-05-25 06:26 pm 1.3 0.7 14.3 E 1.0 8.3 ESE N/A 4.5
2024-05-25 05:56 pm 1.3 0.7 14.3ENE 1.0 7.7 E N/A 4.6
2024-05-25 05:26 pm 1.3 0.7 14.3 E 1.0 9.1 E N/A 5.0
2024-05-25 04:56 pm 1.0 0.7 14.3 E 1.0 9.1 E N/A 5.3
2024-05-25 04:26 pm 1.0 0.3 14.3ENE 1.0 9.1 E N/A 5.1
2024-05-25 03:56 pm 1.3 0.3 14.3ENE 1.0 9.1 E N/A 4.7
2024-05-25 03:26 pm 1.3 0.3 14.3ENE 1.0 7.7 ESE N/A 5.1
2024-05-25 02:56 pm 1.3 0.3 15.4 E 1.0 9.1 E N/A 4.9
2024-05-25 02:26 pm 1.3 0.3 15.4 E 1.0 9.1 ESE N/A 4.8
2024-05-25 01:56 pm 1.3 0.3 14.3 E 1.0 9.9 E N/A 4.9
2024-05-25 01:26 pm 1.3 0.3 15.4 E 1.3 9.9 E N/A 5.1
2024-05-25 12:56 pm 1.3 0.3 15.4 E 1.0 9.1 E N/A 4.8

Plot of wave energy versus frequency (and period)